Wetbulb
46.27 43.96 40.62 41.50 42.55 42.27 41.37 39.82 39.32 41.47 43.60 44.16 42.56 42.96 44.28 44.56 44.70 44.07 44.80 45.86 47.92 49.39 49.40 49.79 50.00 51.06 52.32 54.04 55.44 56.58 55.70 55.31 55.29 54.26 53.09 53.37 53.02 53.31 53.74 54.00 53.73 53.88 54.17 54.76
44.28 40.56 43.13 43.50 43.09 42.13 41.44 39.56 39.24 41.85 43.05 43.63 42.86 43.11 43.28 44.38 43.46 43.85 45.76 46.87 47.99 48.89 49.11 48.92 49.95 50.90 51.31 52.87 53.56 52.37 51.17 51.01 50.90 51.62 52.01 51.97 51.59 52.18 51.77 52.55 53.36 53.67 53.26 53.37
41.37 42.09 44.33 43.51 42.13 41.69 41.13 39.93 39.35 39.45 41.98 42.90 41.73 41.39 42.47 43.87 45.01 45.68 46.38 47.12 47.74 49.15 49.42 49.35 49.86 50.72 50.83 50.61 50.15 50.02 50.37 50.88 51.60 51.52 51.99 52.38 52.44 52.76 52.26 52.58 52.34 52.94 53.01 52.68
42.10 43.66 43.09 42.78 41.36 41.78 38.80 41.94 41.73 40.25 40.05 38.16 40.76 36.37 41.16 41.61 43.02 44.57 45.65 46.89 47.79 48.14 49.24 49.43 49.66 49.79 49.86 49.71 51.37 51.82 51.96 52.22 51.79 52.20 51.51 50.39 49.17 48.19 49.91 50.23 50.83 51.14 51.95 51.69
40.72 42.38 42.27 42.11 41.70 43.02 41.66 42.79 41.27 40.87 39.73 39.17 39.72 38.16 40.51 41.94 41.13 42.73 45.14 46.21 47.86 47.90 47.75 48.06 48.42 49.03 49.11 50.27 50.63 51.34 51.73 51.56 51.31 51.11 49.92 49.25 48.74 49.03 49.27 49.27 48.83 49.49 50.34 50.66
42.88 45.73 44.26 43.54 44.20 44.31 44.25 41.94 40.12 39.48 38.77 34.78 36.50 36.65 37.64 39.89 40.42 42.88 45.94 47.25 46.67 47.28 47.37 47.39 48.96 49.60 49.75 51.01 51.13 51.44 51.18 51.12 51.58 51.34 49.41 48.56 48.00 47.67 47.68 47.97 47.66 48.04 48.00 48.11
41.78 42.77 45.32 44.93 43.10 44.97 43.61 38.55 33.99 33.93 33.66 33.32 36.98 35.81 37.99 41.62 43.38 44.38 45.11 45.85 46.28 47.25 47.47 47.70 48.07 48.93 49.66 50.08 50.62 50.72 50.67 50.20 50.60 50.27 48.05 47.77 47.72 47.87 47.15 47.16 46.85 46.21 45.61 45.84
36.60 35.39 42.45 45.17 42.94 40.43 40.72 39.05 33.93 27.04 29.25 31.85 36.06 33.55 38.11 43.52 45.26 46.38 45.97 45.20 45.88 46.56 47.30 47.66 47.82 48.72 49.25 49.52 49.83 50.37 49.73 49.47 50.00 49.62 48.34 47.20 48.27 47.43 46.71 46.19 45.58 44.30 43.76 43.88
36.60 36.73 44.00 44.67 44.62 43.53 40.53 37.69 39.53 32.23 25.96 30.94 34.58 37.91 41.52 43.05 44.15 44.39 44.13 44.99 45.19 46.38 47.02 47.83 48.59 49.23 49.81 49.62 49.51 49.36 49.11 48.95 49.07 48.99 47.38 46.74 46.80 46.62 45.76 45.60 44.51 42.99 43.12 43.94
40.53 35.77 41.15 43.10 44.71 44.58 42.52 42.45 36.07 36.04 28.41 26.38 32.83 33.66 36.65 39.43 41.19 42.76 43.39 43.95 45.34 46.19 47.49 48.68 49.48 49.77 49.81 50.00 49.47 49.20 50.21 48.62 48.73 48.69 46.52 45.94 45.98 45.85 45.27 43.64 41.84 41.82 43.04 44.68
41.29 38.30 37.93 40.70 39.89 38.72 40.34 38.32 37.73 37.50 34.74 30.02 26.38 32.88 41.42 41.10 41.83 42.66 43.72 44.39 45.63 46.98 47.91 48.66 49.04 49.57 49.54 49.23 49.73 49.47 49.06 48.23 47.99 47.18 45.40 45.50 45.12 44.19 41.60 40.25 40.66 41.57 43.64 43.43
41.82 37.29 33.40 36.72 41.14 42.96 41.49 38.70 37.32 32.35 29.64 32.92 31.89 31.85 42.11 43.14 42.82 43.74 44.24 44.32 46.04 47.11 47.78 48.26 48.50 48.66 48.79 48.99 49.01 48.62 48.81 47.77 46.40 44.91 44.94 44.44 42.77 39.98 39.06 39.46 40.46 41.06 40.53 41.02
42.22 36.27 30.57 32.48 37.42 40.15 39.25 39.74 37.27 35.64 34.25 32.33 29.67 32.31 41.73 42.89 44.16 44.17 44.26 45.20 46.37 46.95 47.60 47.95 48.01 47.70 47.76 47.40 47.34 47.60 47.34 46.08 45.21 44.72 43.97 41.63 39.48 38.49 38.50 40.56 41.56 41.91 41.69 41.76
43.62 36.84 33.99 30.39 33.08 36.70 34.73 36.89 37.81 37.73 33.48 32.53 33.55 35.75 40.50 42.45 42.24 43.41 43.63 45.42 46.34 46.04 46.52 46.96 46.78 46.22 45.49 45.49 45.39 45.22 45.04 45.04 44.18 43.26 42.44 40.44 39.44 38.62 40.69 41.62 41.68 41.70 41.55 40.95
42.37 36.27 35.86 36.47 37.48 36.77 36.44 36.16 36.76 35.80 36.70 33.17 35.92 36.15 39.79 42.03 42.13 42.58 44.80 44.82 44.44 45.22 45.63 44.72 43.14 43.01 43.59 44.05 44.44 43.95 43.88 43.42 43.16 42.84 42.06 41.33 41.26 41.27 40.85 40.60 39.88 40.61 40.42 40.28
40.09 35.66 35.50 32.87 34.77 34.88 33.01 35.78 36.09 36.59 37.05 36.63 37.25 36.49 42.91 42.62 43.61 43.39 43.06 43.18 43.09 43.48 42.32 42.07 41.83 42.10 42.50 43.16 41.89 41.55 41.72 41.77 41.61 40.51 39.59 38.40 38.22 38.56 38.79 39.37 39.97 39.63 37.82 34.96
38.19 35.29 32.03 29.30 31.79 32.05 29.29 33.33 35.35 36.78 38.15 37.76 33.75 38.83 40.65 41.05 42.00 42.61 42.94 43.03 41.56 39.82 40.00 39.50 40.03 41.50 42.68 41.71 40.81 40.43 40.03 40.23 38.62 37.91 37.60 37.79 38.75 38.06 37.28 36.04 35.01 33.77 33.08 32.92
33.50 32.98 31.41 30.82 29.75 25.93 36.18 39.43 39.54 37.19 38.20 38.67 38.15 38.82 40.33 42.24 43.34 43.37 42.55 40.53 39.26 38.80 38.13 39.82 40.91 42.25 41.65 40.70 40.83 38.65 37.63 37.60 36.90 36.86 37.54 37.87 35.66 34.05 33.85 33.67 32.81 32.31 32.20 31.45
37.62 33.83 30.86 29.48 29.21 31.82 35.84 37.67 37.44 36.02 35.97 40.04 38.87 41.11 42.22 43.90 43.22 41.78 40.50 40.80 39.49 38.76 40.57 41.22 43.00 41.54 40.18 40.11 39.79 35.78 35.80 36.04 36.19 35.66 34.75 34.11 33.73 32.90 32.69 31.70 31.08 31.33 30.83 30.66
35.06 32.91 34.31 30.08 27.22 25.54 34.97 38.02 40.15 40.77 33.04 40.71 41.69 41.49 41.54 41.29 34.97 39.97 39.19 39.81 39.84 40.95 41.34 41.90 41.99 40.12 39.26 40.62 40.38 37.72 36.99 36.30 33.96 34.32 34.10 33.74 33.03 32.15 31.18 30.72 30.47 30.57 30.59 29.74
30.01 31.08 30.11 30.38 28.27 31.63 37.84 38.95 40.54 31.56 34.52 40.13 41.73 42.00 41.04 38.52 38.51 38.41 39.45 39.88 40.71 40.45 40.52 42.28 40.13 38.53 39.10 40.29 39.90 37.03 34.45 33.11 34.58 34.37 33.27 32.53 32.20 31.59 31.34 30.48 30.77 30.15 29.62 28.80
31.56 30.56 28.37 28.85 26.83 25.85 38.90 39.13 36.22 40.48 42.09 42.02 42.40 41.26 41.59 39.57 38.89 38.56 39.91 39.63 39.28 39.33 40.03 40.81 38.37 37.94 39.31 39.91 37.21 35.03 34.66 36.50 36.55 34.00 32.44 31.82 31.84 31.23 30.25 30.11 30.13 29.37 29.07 28.00
32.49 35.27 33.51 33.84 34.21 39.92 40.61 42.23 43.78 42.66 40.51 41.35 41.81 39.57 39.13 38.14 38.50 39.32 38.90 39.16 39.64 39.23 39.80 39.36 37.64 37.30 38.74 39.10 38.03 35.32 37.34 37.67 36.47 33.20 32.16 31.81 31.44 30.78 30.58 29.76 29.75 28.51 28.55 27.40
37.05 38.49 35.55 35.80 40.07 40.82 42.48 44.97 43.55 43.48 41.21 40.70 41.03 40.56 40.62 39.54 39.18 38.37 39.30 39.41 38.64 38.83 38.04 38.24 37.07 36.75 37.66 38.94 37.39 37.54 36.73 34.71 33.29 32.11 31.86 31.78 30.75 30.45 31.01 30.42 29.93 28.32 27.82 26.97
39.57 39.11 37.18 36.55 40.83 42.06 42.30 42.35 43.13 41.47 41.41 40.84 41.58 40.65 39.65 39.49 38.75 39.39 38.74 37.97 37.41 37.05 37.24 37.20 36.55 36.73 37.52 37.87 36.68 36.17 34.26 33.38 31.98 31.50 31.12 30.92 30.46 29.36 29.07 28.89 28.51 28.03 28.42 26.56
41.00 39.54 36.82 36.46 42.68 41.88 41.89 42.46 42.44 40.31 40.00 40.40 40.04 38.71 39.02 38.84 38.52 38.12 36.81 36.77 36.06 35.73 36.23 35.87 36.11 35.27 33.80 33.57 32.45 32.72 32.71 32.31 31.65 30.52 30.48 30.23 29.43 29.36 28.06 27.30 27.02 27.34 25.94 25.89
MSLP
1015.17 1015.64 1016.68 1017.12 1017.13 1017.13 1017.34 1017.50 1017.54 1017.41 1017.45 1017.18 1016.84 1016.56 1016.32 1016.35 1016.16 1016.09 1016.06 1015.99 1016.15 1016.57 1017.17 1017.30 1017.37 1017.43 1017.63 1017.99 1018.17 1018.40 1018.63 1019.20 1019.69 1019.84 1019.86 1019.84 1019.66 1019.65 1019.37 1019.27 1019.41 1019.41 1019.31 1019.12
1016.16 1016.89 1017.21 1017.37 1017.35 1017.37 1017.55 1017.73 1017.69 1017.58 1017.55 1017.28 1017.01 1016.75 1016.81 1016.73 1017.02 1017.05 1016.78 1016.72 1016.88 1017.10 1017.39 1017.68 1017.87 1018.08 1018.28 1018.25 1018.68 1019.32 1019.70 1020.01 1020.22 1020.31 1020.37 1020.36 1020.16 1019.69 1019.44 1019.27 1019.09 1018.95 1018.93 1018.66
1016.88 1017.50 1017.32 1017.53 1017.79 1017.82 1017.90 1017.93 1018.15 1018.32 1017.88 1017.71 1017.45 1017.07 1016.95 1017.13 1017.34 1017.31 1017.37 1017.47 1017.54 1017.59 1017.89 1018.17 1018.49 1018.78 1019.04 1019.38 1019.79 1019.99 1020.20 1020.36 1020.39 1020.43 1020.37 1020.28 1020.02 1019.66 1019.37 1019.11 1018.88 1018.58 1018.55 1018.37
1017.61 1017.70 1017.81 1017.94 1018.13 1018.28 1018.20 1018.33 1018.45 1018.46 1018.47 1018.14 1018.03 1017.51 1017.47 1017.81 1017.71 1017.78 1017.83 1017.96 1018.17 1018.45 1018.53 1018.85 1019.21 1019.49 1019.90 1020.22 1020.41 1020.43 1020.55 1020.52 1020.60 1020.63 1020.52 1020.48 1020.42 1020.20 1019.89 1019.70 1019.33 1018.92 1018.52 1018.17
1018.41 1018.26 1018.25 1018.25 1018.43 1018.49 1018.63 1018.68 1018.68 1018.68 1018.63 1018.56 1018.35 1018.10 1018.13 1018.20 1018.21 1018.36 1018.57 1018.57 1018.64 1019.09 1019.43 1019.67 1020.09 1020.45 1020.71 1020.86 1020.78 1020.82 1020.70 1020.76 1020.96 1020.95 1020.77 1020.48 1020.26 1020.29 1020.23 1019.93 1019.27 1018.71 1018.15 1017.93
1018.84 1018.59 1018.66 1018.64 1018.50 1018.64 1018.79 1018.88 1019.08 1019.25 1019.20 1019.30 1019.32 1019.13 1019.13 1019.06 1019.34 1019.05 1018.97 1019.04 1019.36 1019.64 1019.96 1020.35 1020.75 1020.86 1020.99 1020.98 1020.79 1020.72 1020.63 1020.74 1020.77 1020.60 1020.50 1020.37 1020.17 1019.83 1019.87 1019.44 1019.01 1018.45 1018.13 1017.89
1019.58 1019.33 1019.03 1018.92 1018.83 1018.79 1019.00 1019.29 1019.65 1019.94 1019.93 1020.01 1019.98 1019.70 1019.85 1020.13 1020.01 1019.95 1019.88 1020.00 1020.37 1020.57 1020.58 1020.74 1020.86 1020.96 1020.98 1020.97 1020.89 1020.75 1020.64 1020.47 1020.59 1020.45 1020.57 1020.53 1020.24 1020.25 1019.87 1019.58 1019.31 1018.93 1018.28 1017.92
1020.74 1020.09 1019.77 1019.60 1019.71 1019.83 1019.94 1020.31 1020.89 1021.34 1021.77 1021.29 1020.62 1020.33 1020.28 1020.49 1020.33 1020.15 1020.42 1020.80 1021.07 1021.15 1021.18 1021.18 1021.26 1021.23 1021.24 1021.21 1021.04 1020.90 1020.76 1020.59 1020.33 1020.27 1020.13 1020.60 1020.78 1020.51 1020.30 1019.67 1019.37 1018.87 1018.46 1018.40
1021.51 1020.86 1020.33 1020.20 1020.16 1020.29 1020.45 1021.17 1021.92 1022.44 1023.68 1022.78 1021.37 1020.92 1020.75 1020.50 1020.44 1020.56 1020.68 1020.90 1021.23 1021.41 1021.36 1021.21 1021.18 1021.09 1020.98 1020.97 1021.05 1021.07 1020.84 1020.78 1020.62 1020.58 1020.70 1020.69 1020.59 1020.25 1019.80 1019.30 1018.94 1018.33 1018.12 1018.24
1022.07 1021.76 1021.17 1020.87 1020.68 1020.79 1020.81 1021.79 1022.30 1022.77 1023.55 1023.27 1021.84 1021.14 1020.23 1020.50 1020.64 1020.85 1021.05 1021.30 1021.40 1021.36 1021.16 1020.93 1020.83 1020.81 1020.89 1020.95 1020.91 1020.80 1020.60 1020.67 1020.67 1020.73 1020.72 1020.64 1020.44 1020.07 1019.74 1019.18 1018.50 1018.03 1017.97 1018.07
1022.34 1022.51 1022.16 1021.71 1021.72 1021.77 1021.87 1022.29 1023.10 1023.72 1024.23 1024.07 1023.45 1021.13 1020.30 1020.49 1020.79 1020.93 1021.24 1021.52 1021.43 1021.31 1021.17 1020.95 1020.87 1020.76 1020.79 1020.82 1020.76 1020.61 1020.52 1020.51 1020.38 1020.48 1020.55 1020.31 1019.90 1019.59 1019.31 1018.99 1018.60 1018.47 1018.42 1018.36
1022.99 1023.18 1022.83 1022.58 1022.51 1022.42 1022.50 1022.97 1023.44 1024.11 1024.67 1024.48 1023.98 1021.56 1020.32 1020.37 1020.73 1020.83 1021.00 1021.29 1021.30 1021.17 1020.97 1020.85 1020.75 1020.70 1020.66 1020.72 1020.71 1020.65 1020.52 1020.42 1020.44 1020.38 1020.11 1019.95 1019.89 1019.81 1019.41 1018.94 1018.66 1018.54 1018.51 1018.52
1023.19 1023.74 1023.64 1023.34 1023.47 1023.05 1023.09 1023.44 1023.93 1024.52 1024.70 1024.25 1023.83 1021.40 1020.31 1020.46 1020.35 1020.74 1020.99 1021.22 1021.14 1020.94 1020.79 1020.69 1020.72 1020.80 1020.84 1020.69 1020.69 1020.63 1020.61 1020.53 1020.46 1020.45 1020.43 1020.21 1019.98 1019.78 1019.60 1019.62 1019.45 1019.08 1018.78 1018.64
1023.38 1024.22 1024.37 1024.22 1023.76 1023.83 1023.95 1023.87 1024.15 1024.31 1024.56 1023.67 1022.43 1021.16 1020.12 1020.18 1020.48 1020.85 1021.19 1021.38 1021.12 1020.95 1020.76 1020.83 1020.81 1020.85 1020.96 1020.83 1020.80 1020.74 1020.64 1020.52 1020.31 1020.16 1020.11 1020.10 1020.02 1019.88 1019.71 1019.78 1019.59 1019.27 1018.98 1018.78
1024.10 1024.80 1024.89 1024.62 1024.18 1024.17 1023.88 1023.71 1023.85 1024.00 1023.53 1023.46 1021.75 1021.32 1020.42 1020.54 1020.89 1020.97 1021.18 1021.13 1020.99 1020.79 1020.91 1021.27 1021.24 1021.06 1020.96 1021.10 1020.97 1020.78 1020.60 1020.42 1020.47 1020.16 1020.03 1020.02 1020.02 1019.78 1019.68 1019.45 1019.45 1019.14 1018.66 1018.38
1025.11 1025.57 1025.85 1025.63 1025.16 1024.71 1023.85 1023.14 1023.15 1023.26 1022.97 1022.74 1022.09 1021.32 1020.73 1020.87 1021.09 1021.26 1021.31 1021.26 1021.29 1021.50 1021.79 1021.80 1021.39 1021.02 1021.06 1021.09 1021.02 1020.87 1020.64 1020.59 1020.54 1020.33 1020.23 1020.25 1020.19 1019.88 1019.39 1019.09 1018.94 1018.91 1018.67 1018.69
1025.95 1026.50 1026.96 1026.41 1025.88 1024.79 1023.59 1022.18 1022.18 1022.08 1021.83 1021.78 1021.48 1020.79 1021.07 1021.16 1021.35 1021.31 1021.31 1021.69 1022.11 1022.45 1022.38 1021.89 1021.09 1020.97 1021.31 1021.24 1021.21 1020.86 1020.81 1020.91 1020.78 1020.51 1020.34 1020.20 1020.00 1019.70 1019.65 1019.46 1019.32 1019.22 1018.99 1018.90
1026.74 1027.31 1027.63 1027.18 1026.16 1024.99 1022.31 1021.84 1021.67 1021.88 1021.28 1021.33 1021.07 1021.02 1021.22 1021.35 1021.45 1021.62 1022.15 1022.52 1022.70 1022.68 1022.11 1021.41 1021.45 1021.27 1021.22 1021.11 1020.88 1020.86 1020.80 1020.72 1020.70 1020.56 1020.48 1020.24 1020.14 1019.92 1019.77 1019.66 1019.56 1019.40 1019.18 1019.01
1026.82 1027.51 1027.90 1027.64 1026.68 1025.03 1022.19 1021.27 1021.35 1021.52 1021.26 1020.79 1020.99 1021.20 1021.36 1021.17 1021.29 1021.84 1022.68 1022.78 1022.80 1022.29 1021.70 1021.34 1021.24 1021.31 1021.37 1021.17 1020.92 1020.81 1020.67 1020.57 1020.75 1020.70 1020.58 1020.34 1020.22 1020.05 1019.89 1019.79 1019.72 1019.51 1019.25 1018.96
1027.50 1027.50 1027.73 1027.81 1026.88 1025.00 1022.27 1021.56 1021.53 1021.64 1021.31 1021.28 1021.58 1021.56 1021.84 1021.87 1021.97 1022.09 1023.07 1022.97 1022.28 1021.83 1021.56 1021.26 1021.39 1021.43 1021.17 1020.85 1020.72 1020.60 1020.35 1020.37 1020.47 1020.56 1020.39 1020.47 1020.40 1020.20 1020.07 1020.03 1019.81 1019.55 1019.26 1018.95
1027.73 1027.83 1027.78 1027.23 1026.46 1024.28 1022.28 1021.92 1021.69 1022.20 1022.24 1021.93 1022.17 1021.91 1021.99 1022.42 1023.00 1023.18 1023.24 1022.52 1022.36 1021.77 1021.16 1021.01 1021.14 1021.10 1020.63 1020.40 1020.24 1019.99 1020.06 1019.99 1020.13 1020.27 1020.22 1020.32 1020.35 1020.26 1020.11 1019.96 1019.69 1019.38 1019.06 1019.03
1026.80 1026.89 1026.86 1026.70 1025.59 1023.46 1021.98 1022.09 1022.10 1021.99 1022.14 1022.05 1022.01 1022.03 1022.14 1022.63 1023.16 1023.23 1022.56 1022.32 1021.92 1021.34 1020.75 1020.65 1020.62 1020.39 1020.24 1020.07 1019.97 1019.71 1019.54 1019.49 1019.74 1019.91 1019.95 1020.14 1020.15 1020.07 1019.93 1019.71 1019.40 1019.18 1018.92 1018.79
1025.60 1024.98 1024.89 1025.01 1023.30 1021.86 1021.88 1021.59 1021.68 1021.95 1022.46 1022.53 1022.54 1023.00 1023.02 1023.03 1022.66 1022.38 1022.15 1021.86 1021.52 1021.20 1020.81 1020.63 1020.51 1020.05 1019.84 1019.74 1019.62 1019.37 1019.01 1019.25 1019.41 1019.47 1019.65 1019.84 1019.90 1019.88 1019.73 1019.46 1019.11 1018.90 1018.73 1018.61
1024.18 1023.97 1023.99 1023.67 1021.96 1021.47 1021.46 1021.28 1021.90 1022.34 1022.75 1023.04 1022.99 1022.95 1022.55 1022.82 1022.62 1022.21 1021.84 1021.47 1021.38 1021.11 1020.79 1020.49 1020.20 1019.82 1019.51 1019.28 1019.24 1019.12 1018.94 1019.05 1019.05 1019.18 1019.41 1019.53 1019.67 1019.63 1019.45 1019.26 1019.03 1018.83 1018.69 1018.51
1023.54 1023.55 1022.88 1022.29 1021.43 1021.15 1021.40 1021.73 1022.17 1022.52 1022.72 1023.16 1023.32 1023.28 1022.73 1022.57 1022.27 1021.91 1021.53 1021.44 1021.34 1021.02 1020.69 1020.46 1020.09 1019.63 1019.44 1019.23 1019.08 1018.94 1018.90 1018.80 1018.93 1019.07 1019.26 1019.42 1019.57 1019.52 1019.31 1019.20 1019.07 1018.89 1018.83 1018.81
1022.81 1022.39 1022.14 1021.01 1021.01 1021.51 1021.93 1022.40 1022.50 1023.00 1023.05 1023.09 1023.13 1022.75 1022.53 1022.45 1022.18 1021.96 1021.61 1021.52 1021.32 1020.93 1020.63 1020.30 1019.91 1019.63 1019.49 1019.39 1019.20 1019.03 1019.00 1018.89 1018.93 1019.01 1019.21 1019.41 1019.44 1019.35 1019.27 1019.07 1018.87 1019.01 1018.97 1018.78
Wind_Speed
6 8 5 2 1 3 3 2 3 3 2 5 3 6 8 10 9 9 6 5 6 5 4 3 3 1 4 5 7 8 7 2 2 2 2 2 3 4 3 4 6 8 9 10
6 4 1 4 4 2 1 2 1 3 1 1 5 5 4 10 7 6 6 7 6 5 3 3 2 2 2 3 1 5 6 6 4 2 1 2 3 4 5 6 8 8 9 9
5 1 2 1 4 5 1 2 2 3 7 1 4 2 7 5 6 7 7 4 3 5 5 3 4 6 9 9 8 6 6 5 5 5 3 3 2 3 4 8 9 11 12 11
5 3 3 3 3 2 3 2 4 4 2 1 4 3 5 6 4 5 3 4 5 6 7 9 8 10 9 7 7 8 9 9 8 7 5 6 5 6 6 7 8 10 11 11
0 2 4 5 2 1 3 1 1 1 3 2 5 1 4 4 6 6 8 5 6 7 7 9 9 8 10 9 8 7 8 9 7 5 5 4 5 4 6 8 12 12 11 11
2 2 3 2 2 1 4 2 3 3 2 1 1 2 4 5 5 5 5 10 8 8 7 6 7 8 8 6 6 5 6 6 6 6 6 6 6 8 9 12 11 11 10 10
6 3 4 3 4 3 8 3 1 2 3 1 2 1 5 9 8 6 8 9 10 9 8 8 8 7 7 8 8 6 8 9 10 8 8 9 10 10 12 14 11 14 11 9
3 1 4 5 2 2 4 3 2 1 2 4 2 4 6 8 7 8 8 7 7 8 6 6 3 1 4 5 7 9 10 9 9 10 10 9 10 8 10 11 10 10 9 4
2 2 3 4 3 2 1 5 1 6 2 2 3 1 4 7 8 8 7 8 8 6 4 2 3 5 6 9 9 9 11 11 9 8 6 8 8 11 12 13 12 8 4 4
1 2 2 3 1 6 3 4 1 4 2 3 5 4 3 3 5 5 5 4 5 5 6 7 8 9 7 8 7 7 7 8 8 9 6 7 11 12 12 12 12 7 4 5
1 2 2 0 4 1 3 2 5 4 1 1 3 6 4 6 0 5 3 1 3 6 7 9 10 11 10 7 8 8 7 8 8 7 7 10 11 11 11 9 7 1 2 3
1 3 2 2 2 1 2 3 3 2 2 1 0 9 2 7 2 4 4 1 4 7 9 10 10 10 9 8 11 11 10 9 8 6 8 8 9 9 7 5 5 4 4 4
2 2 3 2 2 2 2 2 4 4 2 7 3 7 0 5 10 7 7 6 9 10 12 11 9 10 10 12 12 11 11 9 7 10 9 7 7 6 6 6 6 6 6 6
4 2 4 4 4 2 5 4 4 4 4 5 12 19 20 17 13 10 6 7 12 12 11 10 9 10 9 8 8 9 9 8 9 7 5 4 4 4 4 5 6 6 6 7
3 3 3 5 9 4 8 13 10 12 11 8 13 15 18 14 10 4 8 11 13 14 11 9 8 8 8 9 10 10 11 10 8 5 4 4 3 4 4 7 7 6 6 7
2 2 1 4 6 5 10 12 11 12 14 13 18 20 14 6 3 7 11 12 12 10 5 8 9 9 9 10 11 11 10 7 4 3 5 5 5 5 4 6 9 9 9 8
1 3 1 4 5 9 6 4 4 3 6 4 5 6 1 4 7 12 15 11 7 5 7 9 8 9 11 11 12 12 9 5 2 2 1 4 6 8 8 7 7 8 7 7
5 3 1 3 4 2 1 4 7 9 12 7 9 6 3 9 13 11 7 5 4 4 7 11 9 10 10 11 10 6 2 3 2 4 6 8 7 7 7 7 8 7 6 7
2 5 2 2 3 8 10 2 2 4 6 3 2 3 12 16 15 6 3 4 2 8 11 10 9 8 10 9 6 5 6 4 5 5 6 5 5 7 7 7 8 7 7 7
4 4 2 3 3 6 5 1 2 2 9 1 2 16 19 12 9 10 5 5 12 11 11 10 8 8 8 8 6 8 9 6 4 5 5 6 6 6 6 6 7 6 7 7
2 1 4 5 5 10 9 5 2 2 4 3 5 11 12 6 1 2 5 13 11 12 13 9 6 7 8 8 8 8 5 5 4 5 4 5 5 5 5 6 5 6 8 6
3 3 4 3 4 8 2 2 2 2 7 9 10 6 3 4 4 6 11 12 13 14 14 9 8 8 8 8 7 6 7 7 5 4 4 5 5 4 4 6 6 7 7 7
4 7 3 9 8 2 3 8 6 4 4 4 2 6 2 5 8 10 10 12 13 14 12 8 9 9 8 7 6 8 10 6 6 5 5 5 5 5 5 7 8 7 7 7
4 4 5 1 7 9 10 9 2 3 2 2 3 6 5 9 11 13 12 12 11 11 11 10 10 11 10 8 7 9 9 6 5 6 5 4 4 6 6 5 5 6 7 7
6 4 4 7 15 13 7 2 2 5 5 4 5 8 9 10 13 12 12 10 10 10 11 11 11 11 11 10 10 8 8 5 7 6 4 3 3 4 5 5 5 6 5 6
5 7 5 7 9 7 4 5 5 2 2 4 6 9 11 10 12 10 11 9 9 11 12 12 12 9 10 8 8 7 5 4 5 5 3 2 3 3 4 5 6 5 6 9
Wind_Direction
16 65 66 40 145 140 149 172 245 255 170 326 325 304 343 357 33 42 56 101 130 111 18 356 4 139 160 166 175 193 196 217 299 342 343 317 334 323 295 291 293 284 277 273
48 70 147 109 54 96 135 210 284 251 320 317 355 0 344 27 37 35 64 76 95 107 84 31 43 43 154 141 81 32 29 23 8 350 334 313 309 298 305 317 311 305 296 295
101 17 63 93 43 34 354 105 27 298 334 84 333 87 17 27 51 43 47 67 97 118 118 128 67 51 34 35 19 17 24 23 34 22 352 330 281 292 320 335 326 330 322 313
71 9 72 62 73 45 2 73 307 267 237 234 347 131 27 356 43 24 30 47 28 17 11 16 16 29 24 32 42 63 71 58 41 29 23 13 349 334 337 323 316 315 317 318
278 38 40 49 350 53 263 1 265 198 154 147 11 112 15 16 36 -0 7 353 3 18 25 37 54 63 64 58 58 53 53 41 29 24 25 20 13 350 335 327 324 318 313 314
48 309 46 299 312 38 314 55 53 72 99 133 337 328 52 12 341 358 23 19 9 7 16 51 72 72 59 44 44 40 30 26 18 17 19 19 8 358 336 335 331 328 323 321
346 355 326 20 356 13 20 39 354 15 19 223 49 50 64 66 36 19 351 4 10 13 44 65 67 54 28 18 15 5 356 0 5 8 3 356 357 342 338 334 322 316 314 310
32 340 7 349 51 312 11 40 93 263 328 318 339 154 143 108 39 20 50 58 54 55 54 63 80 1 358 357 5 3 0 345 351 355 360 346 339 335 322 314 306 304 304 290
21 280 341 33 348 351 32 48 118 105 73 277 319 187 244 236 34 37 37 35 32 30 40 38 298 292 328 2 6 358 356 341 336 338 326 318 322 317 309 309 303 300 274 177
89 313 12 312 303 49 65 121 35 33 22 308 307 261 235 181 10 11 28 27 4 345 333 327 324 326 333 342 341 334 329 316 316 319 307 309 316 320 317 315 313 306 204 180
95 103 298 315 23 347 16 53 64 104 86 178 293 272 202 187 143 2 315 211 354 330 317 307 313 317 311 301 310 309 303 309 318 328 327 327 323 328 328 324 330 23 102 294
11 135 289 140 114 333 120 130 95 120 207 174 250 271 197 201 262 326 319 242 303 290 301 304 306 320 323 319 330 336 331 336 343 326 318 323 334 341 344 3 35 32 18 33
180 27 353 30 43 7 101 145 107 105 97 231 222 264 91 226 301 328 331 326 307 298 315 323 333 342 345 349 345 337 341 337 329 329 332 350 1 9 27 32 23 33 25 27
88 127 172 221 234 176 258 227 192 182 228 244 243 272 284 292 304 327 333 287 300 307 304 331 340 349 340 324 329 345 337 332 329 328 335 356 11 62 38 355 347 348 349 344
90 227 207 263 272 289 272 258 226 226 232 236 275 281 280 293 304 292 320 303 305 311 336 349 346 316 320 338 328 331 330 329 332 333 336 337 319 324 358 2 352 332 323 322
27 247 89 280 323 303 283 269 246 233 250 251 260 271 290 299 211 292 313 306 309 327 347 329 333 335 324 328 330 323 322 326 323 19 53 46 23 333 310 307 326 333 343 353
87 130 79 270 318 308 295 247 180 216 209 214 247 296 28 294 299 310 314 322 357 14 355 323 307 312 321 332 330 326 327 332 95 76 334 323 325 331 338 340 342 346 346 341
130 98 132 291 341 291 197 271 256 262 275 233 269 289 268 309 312 305 18 64 55 355 298 287 311 323 328 328 330 316 214 213 248 294 325 331 343 351 349 343 338 337 336 336
97 127 151 248 235 309 302 334 142 175 277 249 237 328 326 328 333 294 61 53 308 257 280 310 323 318 324 324 314 253 281 298 288 328 334 335 346 341 340 340 336 332 327 325
54 71 130 141 247 257 249 330 33 139 297 109 335 337 322 312 300 308 2 317 273 284 294 309 312 314 310 314 304 287 290 300 307 307 327 345 342 337 337 332 325 323 317 316
0 11 238 238 251 275 262 284 209 342 322 205 274 295 292 282 357 269 302 281 294 287 304 299 285 296 301 309 313 303 283 258 264 290 328 331 327 323 322 315 313 317 320 311
230 183 215 173 228 277 192 247 203 302 325 291 304 298 268 95 344 311 268 290 302 310 314 298 294 299 302 304 305 284 272 269 274 283 297 298 306 317 308 303 308 318 320 312
262 196 192 192 227 251 226 263 299 338 280 342 11 60 73 272 248 284 289 300 304 306 309 294 291 293 287 289 266 273 278 288 255 245 266 283 310 309 304 304 313 315 324 321
265 169 216 246 240 265 277 292 81 92 87 118 166 235 252 272 290 295 308 310 311 316 314 309 298 290 285 293 292 274 286 275 234 245 260 292 307 319 314 310 315 316 326 330
222 148 223 252 287 281 265 140 108 108 123 224 260 277 282 284 296 300 304 309 311 313 321 317 304 296 296 312 303 304 296 237 242 252 262 282 312 317 322 328 323 326 333 331
176 224 212 258 279 303 18 76 100 171 223 292 287 306 313 307 305 315 310 307 312 323 325 321 312 310 309 311 315 329 337 300 271 273 269 278 301 321 325 333 333 345 339 349